Weather in Chokhatauri

Georgia     42°00′51″N   42°14′23″E
temp.,
°C
wind,
m/s
gust,
m/s
humid.,
%
clouds,
%
prec.,
mm/h
press.,
hPa
HPBL,
m
27 october, wed
wed2701:00+6se22660 0.0 102616
04:00+6se22630 0.0 102620
07:00+6se22610 0.0 102524
10:00+10nne11560 0.0 1025189
13:00+14nnw11520 0.0 1023385
16:00+14nw11570 0.0 1022328
19:00+9sse11780 0.0 102314
22:00+8sse11760 0.0 102412
28 october, thu
thu2801:00+7sse21750 0.0 102413
04:00+7sse21750 0.0 102512
07:00+7sse21770 0.0 102514
10:00+11n10660 0.0 1025243
13:00+14nw226514 0.0 1024886
16:00+14w226855 0.0 1023883
19:00+11sw118477 0.0 102459
22:00+10sse118375 0.1 102574
29 october, fri
fri2901:00+9se117955 0.0 102412
04:00+10sse1173100 0.0 102425
07:00+9sse227297 0.0 102435
10:00+11sse0168100 0.0 1025182
13:00+12nw1166100 0.0 1024406
16:00+13wnw2269100 0.0 1024722
19:00+10s1189100 0.1 102544
22:00+10sse1185100 0.1 102529
30 october, sat
sat3001:00+9ese1187100 0.0 102513
04:00+8sse118584 0.0 102411
07:00+8sse1182100 0.0 102410
10:00+11nnw117498 0.0 1024184
13:00+13wnw117296 0.0 1024394
16:00+13nnw1172100 0.1 1024449
19:00+10e118346 0.0 102424
22:00+9ese228052 0.0 102426
31 october, sun
sun3101:00+9se117654 0.0 102430
04:00+9se227468 0.0 102327
07:00+9se227123 0.0 102227
10:00+13nne1164100 0.0 1022124
13:00+14wnw1165100 0.0 1022246
16:00+13ssw0075100 0.0 102166
19:00+12se1174100 0.0 102111
22:00+11sse11755 0.0 102220